Tracking 29487 objects as of 11-Sep-2024
HD Live streaming from Space Station
objects crossing your sky now

FENGYUN 1C DEB

Track FENGYUN 1C DEB now!
10-day predictions


NORAD ID: 31608
Int'l Code: 1999-025BZN
Perigee: 534.0 km
Apogee: 788.2 km
Inclination: 98.4 °
Period: 97.8 minutes
Semi major axis: 7032 km
RCS: 0.0149 m2 (small)
Launch date: May 10, 1999
Source: People's Republic of China (PRC)
Launch site: Taiyaun Space Center, China (TSC)

Note: This is SATELLITE DEBRIS
Your satellite tracking list
Your tracking list is empty




NASA's NSSDC Master Catalog

Two Line Element Set (TLE):
1 31608U 99025BZN 24253.50110763  .00024943  00000-0  30507-2 0  9991
2 31608  98.3665 346.2013 0180709  69.9599 292.0960 14.72232602918407
Source of the keplerian elements: AFSPC